Central Park, NY

10:39 PM EDT on June 17, 2018 (GMT -0400)
Central Park

Weather History for KNYC - May, 2010

Change the Weather History Date:

Wednesday, May 26, 2010

  Actual Average Record
Temperature  
Mean Temperature 79 °F 65 °F  
Max Temperature 92 °F 74 °F 95 °F (1880)
Min Temperature 65 °F 57 °F 42 °F (1967)
Degree Days  
Heating Degree Days 0 3  
Month to date heating degree days 98 127  
Since 1 July heating degree days 4372 4720  
Cooling Degree Days 14 3  
Month to date cooling degree days 85 41  
Year to date cooling degree days 107 53  
Growing Degree Days 28 (Base 50)    
Moisture  
Dew Point 63 °F    
Average Humidity 63    
Maximum Humidity 87    
Minimum Humidity 38    
Precipitation  
Precipitation 0.00 in 0.15 in 1.28 in (2003)
Month to date precipitation 2.95 3.45  
Year to date precipitation 25.40 19.05  
Snow  
Snow 0.00 in 0.00 in 0.00 in (2002)
Month to date snowfall 0.0 0.0  
Since 1 July snowfall 51.4 25.8  
Snow Depth 0.00 in    
Sea Level Pressure  
Sea Level Pressure 29.85 in    
Wind  
Wind Speed 5 mph (West)    
Max Wind Speed 9 mph    
Max Gust Speed 16 mph    
Visibility 10 miles    
Events      
T = Trace of Precipitation, MM = Missing Value Source: NWS Daily Summary

Daily Weather History Graph

Daily Weather History Graph

Search for Another Location

Airport or City:

Astronomy

May. 26, 2010 Rise Set
Actual Time 5:30 AM EDT 8:16 PM EDT
Civil Twilight 4:57 AM EDT 8:48 PM EDT
Nautical Twilight 4:17 AM EDT 9:29 PM EDT
Astronomical Twilight 3:31 AM EDT 10:15 PM EDT
Moon 7:21 PM EDT (5/26) 4:08 AM EDT (5/26)
Length of Visible Light 15h 50m
Length of Day
14h 46m
Waxing Gibbous, 98% of the Moon is Illuminated
May 26
Waxing Gibbous
May 27
Full
Jun 4
Last Quarter
Jun 12
New
Jun 19
First Quarter

Hourly Weather History & Observations

Time (EDT) Temp. Heat Index Dew Point Humidity Pressure Visibility Wind Dir Wind Speed Gust Speed Precip Events Conditions
12:51 AM 69.1 °F - 57.0 °F 65% 30.03 in 10.0 mi Variable 5.8 mph - N/A   Clear
1:51 AM 66.9 °F - 57.9 °F 73% 30.01 in 10.0 mi Variable 4.6 mph - N/A   Clear
2:51 AM 66.9 °F - 57.9 °F 73% 29.99 in 10.0 mi Variable 4.6 mph - N/A   Clear
3:51 AM 66.0 °F - 57.9 °F 75% 29.98 in 10.0 mi Variable 3.5 mph - N/A   Clear
4:51 AM 66.0 °F - 59.0 °F 78% 29.96 in 10.0 mi Variable 4.6 mph - N/A   Clear
5:51 AM 64.9 °F - 60.1 °F 84% 29.95 in 10.0 mi Calm Calm - N/A   Clear
6:51 AM 66.9 °F - 61.0 °F 81% 29.95 in 10.0 mi Calm Calm - N/A   Clear
7:51 AM 69.1 °F - 61.0 °F 75% 29.94 in 10.0 mi Variable 4.6 mph - N/A   Clear
8:51 AM 73.0 °F - 62.1 °F 68% 29.93 in 10.0 mi Variable 3.5 mph - N/A   Clear
9:51 AM 78.1 °F - 62.1 °F 58% 29.91 in 10.0 mi Calm Calm - N/A   Clear
10:51 AM 82.9 °F 83.7 °F 62.1 °F 49% 29.89 in 10.0 mi Calm Calm - N/A   Clear
11:51 AM 88.0 °F 89.6 °F 64.9 °F 46% 29.87 in 10.0 mi Variable 4.6 mph - N/A   Clear
12:51 PM 89.1 °F 90.0 °F 63.0 °F 42% 29.84 in 10.0 mi Variable 4.6 mph - N/A   Clear
1:51 PM 90.0 °F 90.6 °F 63.0 °F 40% 29.81 in 10.0 mi Variable 5.8 mph - N/A   Clear
2:51 PM 91.0 °F 91.9 °F 63.0 °F 39% 29.78 in 10.0 mi West 5.8 mph - N/A   Clear
3:51 PM 90.0 °F 91.3 °F 64.0 °F 42% 29.76 in 10.0 mi Variable 4.6 mph - N/A   Clear
4:51 PM 91.0 °F 92.6 °F 64.0 °F 41% 29.74 in 10.0 mi West 6.9 mph - N/A   Clear
5:51 PM 90.0 °F 92.4 °F 66.0 °F 45% 29.73 in 10.0 mi West 6.9 mph - N/A   Clear
6:51 PM 88.0 °F 90.3 °F 66.0 °F 48% 29.72 in 10.0 mi West 8.1 mph - N/A   Clear
7:51 PM 88.0 °F 90.3 °F 66.0 °F 48% 29.71 in 10.0 mi Variable 4.6 mph - N/A   Clear
8:51 PM 86.0 °F 88.2 °F 66.0 °F 51% 29.71 in 10.0 mi Variable 5.8 mph - N/A   Clear
9:51 PM 86.0 °F 88.2 °F 66.0 °F 51% 29.72 in 10.0 mi West 5.8 mph - N/A   Clear
10:51 PM 84.9 °F 87.1 °F 66.0 °F 53% 29.72 in 10.0 mi Variable 5.8 mph - N/A   Clear
11:51 PM 84.9 °F 86.6 °F 64.9 °F 51% 29.71 in 10.0 mi Variable 4.6 mph - N/A   Clear